Skip Page Navigation
NASA JPL Caltech
NASA Logo - Jet Propulsion Laboratory + View the NASA Portal
+ Center for Near-Earth Object Studies
JPL Home Earth Solar System Stars & Galaxies Technology
JPL Solar System Dynamics
BODIES ORBITS EPHEMERIDES TOOLS PHYSICAL DATA DISCOVERY FAQ SITE MAP
JPL Small-Body Database Browser
Search: [ help ]  
180478 (2004 CQ61)
Classification: Main-belt Asteroid          SPK-ID: 2180478
Ephemeris | Orbit Diagram | Orbital Elements | Mission Design | Physical Parameters | Discovery Circumstances ]

[ show orbit diagram ]
Orbital Elements at Epoch 2459200.5 (2020-Dec-17.0) TDB
Reference: JPL 14 (heliocentric ecliptic J2000)
 Element Value Uncertainty (1-sigma)   Units 
e .1363844826503918 4.9205e-08  
a 2.421529721322107 1.3185e-08 au
q 2.091270643057044 1.1998e-07 au
i 5.252013692032284 5.2647e-06 deg
node 84.09832316913301 5.1382e-05 deg
peri 28.36594540632245 5.4813e-05 deg
M 190.9917385694076 1.6652e-05 deg
tp 2459846.657762651296
(2022-Sep-24.15776265)
6.3839e-05 TDB
period 1376.363454575839
3.77
1.1241e-05
3.078e-08
d
yr
n .2615588192226035 2.1362e-09 deg/d
Q 2.75178879958717 1.4983e-08 au
  Orbit Determination Parameters
   # obs. used (total)      402  
   data-arc span      7054 days (19.31 yr)  
   first obs. used      2000-01-03  
   last obs. used      2019-04-27  
   planetary ephem.      DE441  
   SB-pert. ephem.      SB441-N16  
   condition code      0  
   norm. resid. RMS      .53481  
   source      ORB  
   producer      Otto Matic  
   solution date      2021-Apr-13 21:26:40  

Additional Information
 Earth MOID = 1.10948 au 
 Jupiter MOID = 2.3514 au 
 T_jup = 3.495 
[ show covariance matrix ]

Ephemeris | Orbit Diagram | Orbital Elements | Mission Design | Physical Parameters | Discovery Circumstances ]

Physical Parameter Table
Parameter Symbol Value Units Sigma Reference Notes
absolute magnitude H 16.44   n/a MPCxxxxx  

180478 (2004 CQ61)          Discovered 2004-Feb-11 by Spacewatch at Kitt Peak
Reference: 20080321/Numbers.arcLast Updated: 2008-03-26

Alternate Designations
 2004 CQ61 = 2000 AG22 
Ephemeris | Orbit Diagram | Orbital Elements | Mission Design | Physical Parameters | Discovery Circumstances ]
ABOUT SSD CREDITS/AWARDS PRIVACY/COPYRIGHT GLOSSARY LINKS
FirstGov 2021-May-11 05:29 UT
(server date/time)  
NASA Home Page
Site Manager:   Ryan S. Park
Webmaster  Alan B. Chamberlin